Weather History for Northway, AK

Change the Weather History Date:

Thursday, December 12, 2013

  Actual Average Record
Temperature  
Mean Temperature -6 °F -  
Max Temperature 5 °F -8 °F 19 °F (1963)
Min Temperature -20 °F -23 °F -63 °F (1956)
Degree Days  
Heating Degree Days 71    
Moisture  
Dew Point -5 °F    
Average Humidity 71    
Maximum Humidity 83    
Minimum Humidity 66    
Precipitation  
Precipitation 0.00 in - - ()
Snow  
Snow 0.00 in - - ()
Snow Depth 6.00 in    
Sea Level Pressure  
Sea Level Pressure 29.90 in    
Wind  
Wind Speed 10 mph (East)    
Max Wind Speed 13 mph    
Max Gust Speed 20 mph    
Visibility 5 miles    
Events Snow    
Averages and records for this station are not official NWS values.
T = Trace of Precipitation, MM = Missing Value Source: NWS Daily Summary

Daily Weather History Graph

Daily Weather History Graph

Search for Another Location

Airport:

Trip Planner

Search our weather history database for the weather conditions in past years. The results will help you decide how hot, cold, wet, or windy it might be!

Date:

Astronomy

Dec. 12, 2013 Rise Set
Actual Time 9:54 AM AKST 2:48 PM AKST
Civil Twilight 8:45 AM AKST 3:57 PM AKST
Nautical Twilight 7:40 AM AKST 5:02 PM AKST
Astronomical Twilight 6:43 AM AKST 5:59 PM AKST
Moon 1:15 PM AKST (12/12) 4:05 AM AKST (12/12)
Length of Visible Light 7h 12m
Length of Day
4h 53m
Waxing Gibbous, 81% of the Moon is Illuminated
Dec 12
Waxing Gibbous
Dec 17
Full
Dec 25
Last Quarter
Jan 1
New
Jan 7
First Quarter

Hourly Weather History & Observations

Time (AKST) Temp. Windchill Dew Point Humidity Pressure Visibility Wind Dir Wind Speed Gust Speed Precip Events Conditions
12:53 AM 3.9 °F -12.2 °F -2.0 °F 76% 30.02 in 2.0 mi East 11.5 mph - N/A Snow Light Snow
1:53 AM 3.9 °F -11.3 °F -2.9 °F 73% 30.01 in 2.0 mi East 10.4 mph 19.6 mph N/A Snow Light Snow
2:53 AM 3.9 °F -12.2 °F -4.0 °F 70% 30.00 in 3.0 mi East 11.5 mph 17.3 mph N/A Snow Light Snow
3:53 AM 3.9 °F -10.4 °F -4.0 °F 70% 29.98 in 4.0 mi East 9.2 mph - N/A Snow Light Snow
4:53 AM 3.9 °F -10.4 °F -4.0 °F 70% 29.97 in 3.0 mi East 9.2 mph - N/A Snow Light Snow
5:53 AM 3.9 °F -9.4 °F -5.1 °F 66% 29.96 in 5.0 mi East 8.1 mph - N/A Snow Light Snow
6:53 AM 3.9 °F -10.4 °F -5.1 °F 66% 29.96 in 7.0 mi East 9.2 mph 16.1 mph N/A Snow Light Snow
7:53 AM 3.9 °F -12.2 °F -4.0 °F 70% 29.95 in 3.0 mi East 11.5 mph 16.1 mph N/A Snow Light Snow
8:53 AM 3.9 °F -11.3 °F -4.0 °F 70% 29.94 in 8.0 mi East 10.4 mph - N/A Snow Light Snow
9:53 AM 3.9 °F -12.2 °F -5.1 °F 66% 29.94 in 9.0 mi East 11.5 mph - N/A Snow Light Snow
10:53 AM 5.0 °F -10.8 °F -4.0 °F 66% 29.93 in 5.0 mi East 11.5 mph - N/A Snow Light Snow
11:53 AM 5.0 °F -10.0 °F -4.0 °F 66% 29.92 in 3.0 mi East 10.4 mph 16.1 mph N/A Snow Light Snow
12:31 PM 5.0 °F -10.8 °F -2.2 °F 72% 29.75 in 3.0 mi East 11.5 mph - N/A Snow Light Snow
12:53 PM 5.0 °F -10.8 °F -2.9 °F 70% 29.92 in 4.0 mi East 11.5 mph - N/A Snow Light Snow
1:23 PM 5.0 °F -10.0 °F -2.2 °F 72% 29.75 in 2.0 mi East 10.4 mph - N/A Snow Light Snow
1:42 PM 5.0 °F -11.6 °F -2.2 °F 72% 29.74 in 3.0 mi East 12.7 mph 18.4 mph N/A Snow Light Snow
1:53 PM 5.0 °F -10.8 °F -2.9 °F 70% 29.91 in 3.0 mi East 11.5 mph - N/A Snow Light Snow
2:39 PM 5.0 °F -10.8 °F -2.2 °F 72% 29.73 in 2.0 mi East 11.5 mph - N/A Snow Light Snow
2:53 PM 5.0 °F -10.0 °F -0.9 °F 76% 29.90 in 1.0 mi East 10.4 mph - N/A Snow Light Snow
3:27 PM 5.0 °F -8.1 °F -2.2 °F 72% 29.72 in 2.0 mi East 8.1 mph - N/A Snow Light Snow
3:37 PM 5.0 °F -9.1 °F -2.2 °F 72% 29.72 in 3.0 mi East 9.2 mph - N/A Snow Light Snow
3:53 PM 5.0 °F -6.9 °F -2.0 °F 73% 29.89 in 5.0 mi East 6.9 mph - N/A Snow Light Snow
4:53 PM 5.0 °F -6.9 °F -4.0 °F 66% 29.88 in 9.0 mi East 6.9 mph - N/A Snow Light Snow
5:53 PM 3.9 °F -11.3 °F -5.1 °F 66% 29.88 in 9.0 mi East 10.4 mph - N/A Snow Light Snow
6:53 PM 3.0 °F -8.0 °F -6.0 °F 66% 29.88 in 10.0 mi East 5.8 mph - N/A   Mostly Cloudy
7:53 PM -0.9 °F -8.9 °F -7.1 °F 75% 29.89 in 10.0 mi East 3.5 mph - N/A   Scattered Clouds
8:53 PM -2.0 °F -12.2 °F -8.0 °F 76% 29.90 in 10.0 mi East 4.6 mph - N/A   Scattered Clouds
9:53 PM -11.0 °F - -15.0 °F 83% 29.92 in 10.0 mi Calm Calm - N/A   Scattered Clouds
10:53 PM -17.0 °F - -22.0 °F 78% 29.94 in 10.0 mi Calm Calm - N/A   Scattered Clouds
11:53 PM -20.0 °F - -24.0 °F 82% 29.96 in 10.0 mi Calm Calm - N/A   Scattered Clouds